Voltar ao catálogo

STARLINK-3334

AtivoComunicaçõesVLEO
NORAD 50823·PAYLOAD·🇺🇸 United States

Lançado Jan 6, 2022 de Cape Canaveral Space Force Station

Loading…

Próximas Passagens (próximas 24 horas)

TLE

AtualizadoSource: CelesTrak SupGP

Época: Sep 14, 2026, 23:45 UTC

1 50823C 22001W   26257.99006944 -.00031353  00000+0 -95164-3 0  2577
2 50823  53.1594  27.8149 0001197  86.2588 275.2971 15.33556338    19

Acompanhe STARLINK-3334 em tempo real com AllMySat

Download on the App Store